Showing default

DMSP 5D-2 F12 (USA 106), 23233

Orbit data source: Space-Track

DMSP 5D-2 F12 (USA 106), 23233 is a payload satellite owned by USAF SMC (US) in SSO that was launched on Mon, 29 Aug 1994 UTC via an ATLAS E launch vehicle from the Air Force Western Test Range (AFWTR). Payload-class satellites include a variety of spacecraft equipped with specific instruments for various scientific and technological missions. These include communications satellites like Starlink; space stations such as the ISS; scientific satellites like the Hubble; Earth observation satellites from companies like Planet Labs, Umbra, and HawkEye 360; GPS; miniature CubeSats for education and research; and military/defense satellites.

Loading next visibility...
Identifier
23233, 1994-057A
Orbit
SSO
Country
Flag of USUS
Related business
Manufacturer
MM/East Windsor
Mission
Non-operational Defense Weather
Bus & Motor
BLOCK 5D, STAR 37S
Mass
~1,474 kg wet, ~760 kg dry
Launch date (UTC)
1994-08-29 (31 years ago)
Launch vehicle
ATLAS E
Launch site
Air Force Western Test Range (AFWTR)
Object type
Payload
Rocket body
Debris
Shape & HBR
Cyl + 1 Pan, 2.5 m
Radar Cross Section
4.290 m², Large (>1 m²)

Expand to show TLE details & history
Last TLE update: 6 hours ago

TLE from 6 hours ago
0 DMSP 5D-2 F12 (USA 106)
1 23233U 94057A   25261.24031070  .00000009  00000-0  26408-4 0  9994
2 23233  98.7133 313.0981 0010445 337.1993  22.8716 14.16019694603488
Epoch: 2025-09-18T05:46Z
TLE epoch observation values (Epoch: 2025-09-18T05:46:02.844Z)
Latitude
-0.00004°
Longitude
-130.81849°
Altitude
834.809 km
Speed
7.439 km/s
True Right ascension
20h 52m 23s
True Declination
0° 00' 00"
Sunlit
Object was in full shadow at epoch
Visualization orbit readout
Latitude
Unknown
Longitude
Unknown
Altitude
Unknown
Speed
Unknown
Apparent Right ascension
Unknown
Apparent Declination
Unknown
Sunlit
N/A
Visualization observer readout
Local Sidereal Time
04:32:43
Azimuth
Unknown
Elevation
Unknown
Doppler factor
Unknown
Orbital elements
Apogee altitude
843.545 km
Perigee altitude
828.474 km
Semi-major axis
7,214.146 km
Eccentricity
0.00104
Inclination
98.7133°
RAAN
313.0981°
Arg. of periapsis
337.1993°
True anomaly
22.91818°
Mean anomaly
22.8716°
Eccentric anomaly
22.89488°
Mean motion
3.54214 °/min
Orbital period
101.63 mins
BSTAR
0.000026408
Loading maneuver chart data...
Computing Atmospheric mass density...
Loading historical data...
Loading historical data...
Loading historical data...
Loading historical data...
Loading historical data...
Loading historical data...
Loading historical data...

Documentation

Showing up to 5 results
|